QPF
0.03 0.04 0.03 0.03 0.03 0.03 0.03 0.02 0.02 0.03 0.03 0.04 0.05 0.06 0.04 0.03 0.04 0.05 0.04 0.05 0.05 0.05 0.06 0.06 0.06 0.08 0.07 0.04 0.02 0.02 0.03 0.03 0.04 0.03 0.05 0.05 0.04 0.04 0.04 0.05 0.05 0.04 0.03
0.03 0.03 0.03 0.03 0.02 0.02 0.01 0.01 0.02 0.02 0.02 0.04 0.04 0.04 0.04 0.04 0.05 0.04 0.04 0.04 0.04 0.04 0.06 0.08 0.06 0.06 0.06 0.05 0.04 0.03 0.03 0.04 0.04 0.03 0.03 0.04 0.05 0.04 0.03 0.04 0.03 0.03 0.03
0.03 0.02 0.01 0.01 0.01 0.01 0.01 0.02 0.03 0.03 0.03 0.03 0.03 0.04 0.04 0.04 0.04 0.04 0.04 0.04 0.03 0.03 0.05 0.06 0.07 0.09 0.06 0.06 0.05 0.04 0.03 0.03 0.04 0.03 0.03 0.04 0.04 0.03 0.04 0.04 0.03 0.03 0.02
0.02 0.01 0.01 0.01 0.01 0.01 0.01 0.02 0.03 0.03 0.03 0.05 0.05 0.05 0.04 0.03 0.03 0.03 0.03 0.03 0.03 0.03 0.03 0.04 0.06 0.08 0.09 0.08 0.06 0.05 0.05 0.05 0.04 0.04 0.02 0.03 0.02 0.02 0.03 0.03 0.03 0.03 0.03
0.01 0.02 0.02 0.02 0.02 0.02 0.02 0.03 0.03 0.04 0.03 0.03 0.03 0.03 0.03 0.02 0.01 0.02 0.03 0.04 0.04 0.04 0.05 0.06 0.06 0.06 0.07 0.07 0.05 0.05 0.06 0.06 0.05 0.03 0.03 0.03 0.03 0.03 0.02 0.03 0.03 0.03 0.03
0.00 0.01 0.01 0.02 0.03 0.03 0.02 0.03 0.04 0.04 0.04 0.04 0.04 0.03 0.02 0.01 0.01 0.02 0.03 0.03 0.04 0.04 0.04 0.05 0.05 0.05 0.04 0.03 0.04 0.06 0.07 0.06 0.06 0.06 0.05 0.05 0.05 0.04 0.04 0.03 0.03 0.04 0.04
0.01 0.01 0.01 0.02 0.03 0.03 0.02 0.02 0.02 0.02 0.02 0.03 0.04 0.04 0.03 0.03 0.03 0.04 0.04 0.04 0.03 0.02 0.02 0.03 0.03 0.04 0.04 0.03 0.03 0.03 0.03 0.03 0.04 0.06 0.05 0.05 0.06 0.07 0.08 0.06 0.05 0.05 0.04
0.00 0.02 0.03 0.03 0.02 0.02 0.01 0.01 0.01 0.01 0.01 0.02 0.03 0.05 0.05 0.04 0.04 0.05 0.04 0.03 0.02 0.02 0.03 0.03 0.03 0.05 0.05 0.04 0.04 0.04 0.03 0.04 0.03 0.03 0.02 0.03 0.04 0.07 0.09 0.08 0.07 0.06 0.04
0.01 0.02 0.02 0.02 0.01 0.02 0.02 0.01 0.02 0.02 0.02 0.02 0.03 0.04 0.05 0.04 0.04 0.03 0.03 0.03 0.02 0.02 0.02 0.02 0.03 0.04 0.04 0.03 0.04 0.04 0.03 0.03 0.04 0.06 0.05 0.05 0.04 0.05 0.07 0.08 0.07 0.07 0.04
0.01 0.01 0.01 0.01 0.01 0.02 0.02 0.02 0.02 0.02 0.02 0.02 0.03 0.02 0.02 0.03 0.03 0.03 0.02 0.02 0.02 0.02 0.02 0.02 0.03 0.03 0.03 0.04 0.04 0.05 0.04 0.03 0.05 0.08 0.08 0.06 0.04 0.04 0.05 0.05 0.04 0.05 0.04
0.01 0.01 0.01 0.02 0.02 0.02 0.02 0.02 0.02 0.02 0.03 0.03 0.02 0.02 0.02 0.02 0.02 0.02 0.02 0.02 0.02 0.02 0.02 0.03 0.03 0.03 0.03 0.03 0.04 0.03 0.03 0.03 0.06 0.07 0.07 0.07 0.06 0.05 0.04 0.03 0.03 0.05 0.04
0.00 0.01 0.02 0.03 0.02 0.01 0.03 0.03 0.03 0.04 0.04 0.04 0.03 0.03 0.03 0.03 0.02 0.02 0.02 0.02 0.03 0.03 0.03 0.03 0.03 0.02 0.02 0.02 0.02 0.01 0.02 0.03 0.03 0.04 0.05 0.06 0.07 0.06 0.06 0.06 0.07 0.08 0.07
0.00 0.01 0.02 0.02 0.02 0.02 0.02 0.02 0.03 0.04 0.03 0.03 0.03 0.03 0.02 0.02 0.03 0.02 0.02 0.03 0.02 0.02 0.02 0.04 0.03 0.03 0.03 0.02 0.01 0.01 0.01 0.02 0.03 0.03 0.04 0.05 0.06 0.08 0.10 0.10 0.11 0.10 0.08
0.01 0.01 0.01 0.02 0.03 0.03 0.03 0.03 0.03 0.03 0.03 0.03 0.03 0.03 0.02 0.02 0.02 0.03 0.02 0.01 0.01 0.02 0.03 0.03 0.03 0.03 0.03 0.02 0.02 0.01 0.02 0.03 0.02 0.03 0.03 0.05 0.06 0.06 0.08 0.11 0.12 0.12 0.09
0.01 0.02 0.02 0.02 0.03 0.03 0.03 0.03 0.03 0.03 0.03 0.03 0.03 0.03 0.02 0.02 0.02 0.01 0.01 0.01 0.02 0.02 0.02 0.02 0.03 0.03 0.03 0.03 0.02 0.02 0.03 0.02 0.02 0.02 0.02 0.04 0.05 0.05 0.06 0.07 0.10 0.12 0.11
0.02 0.03 0.03 0.03 0.03 0.03 0.03 0.03 0.04 0.03 0.03 0.03 0.03 0.03 0.02 0.01 0.01 0.01 0.01 0.02 0.02 0.02 0.02 0.02 0.02 0.03 0.03 0.02 0.02 0.03 0.03 0.02 0.02 0.02 0.03 0.03 0.04 0.05 0.07 0.07 0.08 0.08 0.09
0.03 0.03 0.03 0.04 0.04 0.04 0.04 0.04 0.04 0.03 0.03 0.03 0.02 0.02 0.01 0.01 0.01 0.01 0.01 0.01 0.01 0.01 0.02 0.01 0.01 0.02 0.02 0.02 0.03 0.04 0.03 0.03 0.03 0.04 0.05 0.05 0.05 0.05 0.06 0.07 0.09 0.09 0.08
0.02 0.02 0.03 0.04 0.06 0.06 0.05 0.05 0.05 0.04 0.04 0.04 0.03 0.03 0.02 0.02 0.02 0.01 0.01 0.01 0.01 0.01 0.01 0.02 0.02 0.02 0.02 0.02 0.03 0.04 0.04 0.04 0.04 0.04 0.04 0.04 0.04 0.05 0.05 0.05 0.06 0.07 0.08
0.02 0.02 0.02 0.03 0.05 0.08 0.09 0.09 0.07 0.05 0.05 0.05 0.05 0.05 0.04 0.04 0.03 0.03 0.03 0.02 0.02 0.02 0.02 0.02 0.02 0.03 0.02 0.02 0.02 0.03 0.03 0.03 0.03 0.04 0.03 0.03 0.04 0.04 0.04 0.04 0.05 0.06 0.07
0.03 0.04 0.04 0.03 0.05 0.08 0.09 0.12 0.12 0.10 0.08 0.08 0.07 0.06 0.05 0.04 0.04 0.04 0.04 0.03 0.03 0.03 0.03 0.03 0.03 0.02 0.02 0.02 0.02 0.02 0.02 0.02 0.02 0.03 0.02 0.02 0.03 0.03 0.04 0.05 0.04 0.06 0.06
0.05 0.06 0.05 0.05 0.05 0.06 0.07 0.09 0.10 0.12 0.12 0.11 0.10 0.09 0.06 0.04 0.04 0.04 0.04 0.04 0.03 0.03 0.03 0.03 0.02 0.02 0.02 0.02 0.02 0.02 0.02 0.02 0.02 0.02 0.02 0.02 0.02 0.03 0.03 0.04 0.05 0.05 0.06
0.05 0.04 0.04 0.04 0.05 0.05 0.06 0.06 0.07 0.08 0.09 0.11 0.10 0.09 0.06 0.04 0.03 0.03 0.03 0.02 0.02 0.03 0.03 0.04 0.05 0.05 0.04 0.03 0.03 0.03 0.03 0.03 0.03 0.03 0.02 0.02 0.02 0.02 0.03 0.04 0.05 0.06 0.06
0.05 0.05 0.04 0.04 0.05 0.08 0.08 0.07 0.07 0.07 0.08 0.10 0.09 0.08 0.06 0.04 0.04 0.03 0.03 0.02 0.02 0.02 0.02 0.04 0.05 0.05 0.04 0.03 0.02 0.03 0.03 0.02 0.02 0.03 0.03 0.02 0.03 0.03 0.04 0.05 0.05 0.05 0.05
0.05 0.06 0.06 0.05 0.06 0.08 0.09 0.09 0.09 0.08 0.07 0.08 0.08 0.08 0.07 0.06 0.05 0.04 0.04 0.03 0.02 0.02 0.02 0.02 0.02 0.03 0.03 0.03 0.02 0.01 0.01 0.01 0.01 0.01 0.02 0.02 0.02 0.03 0.04 0.04 0.04 0.03 0.03
0.07 0.07 0.07 0.06 0.07 0.08 0.07 0.08 0.08 0.08 0.08 0.08 0.08 0.07 0.07 0.06 0.05 0.05 0.05 0.04 0.03 0.03 0.04 0.03 0.02 0.02 0.03 0.03 0.02 0.02 0.03 0.02 0.02 0.02 0.01 0.02 0.02 0.02 0.03 0.04 0.04 0.04 0.04
0.06 0.06 0.05 0.05 0.06 0.08 0.08 0.07 0.07 0.07 0.07 0.07 0.07 0.07 0.07 0.07 0.08 0.09 0.09 0.08 0.08 0.07 0.06 0.06 0.05 0.04 0.04 0.03 0.03 0.04 0.04 0.03 0.03 0.03 0.02 0.02 0.02 0.03 0.03 0.04 0.05 0.06 0.06
MSLP
1011.77 1012.20 1012.60 1012.94 1013.20 1013.37 1013.48 1013.54 1013.59 1013.66 1013.77 1013.93 1014.12 1014.34 1014.56 1014.75 1014.89 1014.99 1015.04 1015.06 1015.06 1015.07 1015.09 1015.12 1015.16 1015.19 1015.22 1015.23 1015.21 1015.16 1015.10 1015.03 1014.96 1014.90 1014.84 1014.79 1014.74 1014.69 1014.65 1014.63 1014.63 1014.66 1014.75
1011.58 1012.04 1012.46 1012.82 1013.10 1013.29 1013.42 1013.50 1013.58 1013.67 1013.79 1013.95 1014.14 1014.35 1014.55 1014.72 1014.84 1014.92 1014.96 1014.97 1014.97 1014.97 1014.98 1015.01 1015.05 1015.10 1015.15 1015.18 1015.20 1015.20 1015.18 1015.15 1015.10 1015.03 1014.96 1014.87 1014.77 1014.66 1014.55 1014.45 1014.38 1014.35 1014.38
1011.39 1011.87 1012.30 1012.67 1012.96 1013.17 1013.32 1013.44 1013.54 1013.66 1013.80 1013.98 1014.18 1014.38 1014.56 1014.71 1014.81 1014.87 1014.89 1014.88 1014.86 1014.84 1014.84 1014.87 1014.91 1014.97 1015.03 1015.10 1015.15 1015.18 1015.20 1015.19 1015.17 1015.12 1015.04 1014.94 1014.81 1014.65 1014.49 1014.33 1014.20 1014.10 1014.06
1011.16 1011.65 1012.10 1012.47 1012.76 1012.98 1013.15 1013.29 1013.43 1013.59 1013.76 1013.96 1014.17 1014.37 1014.55 1014.68 1014.77 1014.80 1014.80 1014.77 1014.72 1014.69 1014.68 1014.69 1014.73 1014.79 1014.86 1014.94 1015.01 1015.07 1015.11 1015.14 1015.14 1015.10 1015.04 1014.94 1014.81 1014.65 1014.47 1014.29 1014.11 1013.97 1013.87
1010.88 1011.38 1011.82 1012.18 1012.47 1012.69 1012.87 1013.04 1013.21 1013.40 1013.61 1013.84 1014.07 1014.29 1014.46 1014.59 1014.66 1014.68 1014.65 1014.60 1014.54 1014.50 1014.47 1014.47 1014.50 1014.55 1014.62 1014.69 1014.77 1014.84 1014.89 1014.94 1014.96 1014.96 1014.93 1014.86 1014.76 1014.63 1014.48 1014.30 1014.13 1013.96 1013.82
1010.53 1011.03 1011.46 1011.80 1012.07 1012.29 1012.47 1012.65 1012.85 1013.07 1013.31 1013.57 1013.83 1014.06 1014.24 1014.37 1014.44 1014.45 1014.42 1014.36 1014.29 1014.23 1014.19 1014.18 1014.20 1014.23 1014.29 1014.35 1014.42 1014.48 1014.54 1014.59 1014.64 1014.67 1014.68 1014.67 1014.63 1014.56 1014.45 1014.33 1014.18 1014.03 1013.86
1010.09 1010.59 1011.00 1011.32 1011.56 1011.76 1011.94 1012.13 1012.34 1012.58 1012.85 1013.14 1013.41 1013.66 1013.86 1014.00 1014.08 1014.09 1014.06 1014.01 1013.95 1013.89 1013.85 1013.83 1013.84 1013.86 1013.90 1013.93 1013.98 1014.03 1014.08 1014.13 1014.18 1014.24 1014.30 1014.34 1014.37 1014.38 1014.35 1014.29 1014.20 1014.08 1013.92
1009.56 1010.05 1010.44 1010.73 1010.95 1011.13 1011.30 1011.48 1011.70 1011.95 1012.24 1012.55 1012.85 1013.11 1013.33 1013.49 1013.58 1013.61 1013.60 1013.56 1013.52 1013.47 1013.45 1013.43 1013.43 1013.45 1013.46 1013.48 1013.50 1013.52 1013.55 1013.59 1013.64 1013.71 1013.80 1013.89 1013.98 1014.05 1014.10 1014.12 1014.09 1014.01 1013.89
1008.94 1009.41 1009.78 1010.06 1010.26 1010.42 1010.58 1010.76 1010.98 1011.25 1011.54 1011.86 1012.17 1012.46 1012.69 1012.87 1012.98 1013.04 1013.06 1013.05 1013.03 1013.01 1013.01 1013.01 1013.01 1013.02 1013.02 1013.02 1013.01 1013.00 1013.00 1013.02 1013.05 1013.12 1013.21 1013.33 1013.45 1013.57 1013.68 1013.75 1013.77 1013.75 1013.65
1008.23 1008.69 1009.05 1009.31 1009.51 1009.67 1009.83 1010.02 1010.24 1010.52 1010.83 1011.15 1011.48 1011.78 1012.03 1012.22 1012.36 1012.45 1012.50 1012.52 1012.53 1012.54 1012.56 1012.58 1012.60 1012.61 1012.61 1012.59 1012.55 1012.52 1012.48 1012.46 1012.47 1012.51 1012.58 1012.69 1012.81 1012.95 1013.07 1013.17 1013.23 1013.24 1013.19
1007.47 1007.92 1008.27 1008.53 1008.73 1008.91 1009.08 1009.29 1009.54 1009.83 1010.15 1010.50 1010.84 1011.15 1011.42 1011.63 1011.79 1011.90 1011.97 1012.02 1012.06 1012.10 1012.14 1012.18 1012.21 1012.22 1012.22 1012.19 1012.14 1012.08 1012.02 1011.97 1011.93 1011.93 1011.96 1012.03 1012.12 1012.23 1012.34 1012.44 1012.51 1012.55 1012.52
1006.69 1007.12 1007.47 1007.74 1007.96 1008.16 1008.38 1008.62 1008.90 1009.23 1009.59 1009.95 1010.31 1010.64 1010.93 1011.16 1011.33 1011.46 1011.55 1011.61 1011.66 1011.72 1011.76 1011.81 1011.85 1011.87 1011.87 1011.84 1011.79 1011.71 1011.63 1011.54 1011.47 1011.42 1011.40 1011.41 1011.46 1011.52 1011.59 1011.66 1011.72 1011.76 1011.76
1005.96 1006.36 1006.70 1006.98 1007.24 1007.48 1007.75 1008.04 1008.38 1008.75 1009.15 1009.55 1009.94 1010.29 1010.59 1010.83 1011.01 1011.15 1011.24 1011.30 1011.36 1011.40 1011.45 1011.49 1011.53 1011.55 1011.55 1011.53 1011.48 1011.40 1011.31 1011.22 1011.12 1011.04 1010.97 1010.93 1010.91 1010.91 1010.93 1010.96 1011.00 1011.03 1011.05
1005.34 1005.70 1006.02 1006.31 1006.60 1006.89 1007.21 1007.57 1007.97 1008.40 1008.84 1009.29 1009.71 1010.08 1010.40 1010.65 1010.84 1010.97 1011.05 1011.10 1011.13 1011.16 1011.18 1011.21 1011.23 1011.25 1011.26 1011.25 1011.21 1011.16 1011.09 1011.00 1010.90 1010.81 1010.71 1010.63 1010.57 1010.52 1010.49 1010.48 1010.49 1010.50 1010.52
1004.88 1005.18 1005.48 1005.78 1006.08 1006.42 1006.80 1007.22 1007.67 1008.16 1008.66 1009.14 1009.60 1010.00 1010.33 1010.59 1010.78 1010.89 1010.96 1010.98 1010.98 1010.97 1010.96 1010.96 1010.97 1010.98 1010.99 1011.00 1011.00 1010.99 1010.95 1010.90 1010.84 1010.76 1010.67 1010.58 1010.49 1010.41 1010.35 1010.30 1010.28 1010.28 1010.29
1004.63 1004.87 1005.13 1005.41 1005.74 1006.11 1006.52 1006.99 1007.49 1008.02 1008.56 1009.08 1009.56 1009.98 1010.32 1010.59 1010.76 1010.86 1010.90 1010.89 1010.86 1010.81 1010.77 1010.74 1010.73 1010.74 1010.77 1010.81 1010.85 1010.89 1010.92 1010.94 1010.93 1010.90 1010.84 1010.77 1010.69 1010.60 1010.52 1010.45 1010.40 1010.37 1010.37
1004.59 1004.77 1004.98 1005.25 1005.57 1005.95 1006.39 1006.88 1007.41 1007.96 1008.52 1009.06 1009.55 1009.97 1010.32 1010.57 1010.74 1010.82 1010.84 1010.80 1010.73 1010.65 1010.58 1010.53 1010.51 1010.52 1010.58 1010.66 1010.76 1010.87 1010.98 1011.08 1011.14 1011.18 1011.18 1011.15 1011.09 1011.01 1010.92 1010.84 1010.76 1010.70 1010.67
1004.74 1004.86 1005.04 1005.28 1005.59 1005.96 1006.40 1006.89 1007.41 1007.96 1008.51 1009.04 1009.52 1009.93 1010.26 1010.50 1010.65 1010.72 1010.72 1010.66 1010.57 1010.47 1010.38 1010.32 1010.30 1010.34 1010.42 1010.55 1010.72 1010.91 1011.10 1011.28 1011.44 1011.55 1011.62 1011.63 1011.60 1011.53 1011.44 1011.33 1011.22 1011.12 1011.03
1005.05 1005.13 1005.28 1005.49 1005.78 1006.13 1006.54 1007.00 1007.50 1008.01 1008.52 1009.01 1009.45 1009.83 1010.13 1010.35 1010.48 1010.53 1010.51 1010.44 1010.34 1010.24 1010.15 1010.10 1010.10 1010.16 1010.29 1010.47 1010.71 1010.97 1011.24 1011.50 1011.73 1011.92 1012.04 1012.09 1012.08 1012.02 1011.91 1011.77 1011.61 1011.45 1011.30
1005.45 1005.51 1005.64 1005.84 1006.10 1006.42 1006.79 1007.20 1007.65 1008.10 1008.54 1008.97 1009.35 1009.67 1009.92 1010.10 1010.21 1010.24 1010.21 1010.14 1010.05 1009.95 1009.88 1009.85 1009.88 1009.98 1010.15 1010.39 1010.68 1011.00 1011.34 1011.67 1011.96 1012.19 1012.34 1012.42 1012.41 1012.33 1012.19 1012.01 1011.79 1011.57 1011.34
1005.90 1005.96 1006.08 1006.27 1006.51 1006.79 1007.12 1007.47 1007.84 1008.22 1008.58 1008.92 1009.22 1009.47 1009.66 1009.79 1009.86 1009.88 1009.84 1009.77 1009.69 1009.61 1009.57 1009.56 1009.63 1009.76 1009.97 1010.25 1010.59 1010.96 1011.35 1011.71 1012.04 1012.29 1012.46 1012.54 1012.52 1012.41 1012.22 1011.98 1011.70 1011.41 1011.10
1006.34 1006.42 1006.56 1006.74 1006.96 1007.22 1007.49 1007.78 1008.07 1008.36 1008.63 1008.87 1009.08 1009.25 1009.38 1009.46 1009.49 1009.48 1009.44 1009.37 1009.30 1009.24 1009.22 1009.24 1009.33 1009.50 1009.74 1010.05 1010.42 1010.82 1011.22 1011.61 1011.94 1012.20 1012.37 1012.43 1012.38 1012.23 1012.00 1011.71 1011.36 1011.00 1010.64
1006.76 1006.87 1007.03 1007.21 1007.43 1007.65 1007.88 1008.11 1008.33 1008.52 1008.70 1008.85 1008.98 1009.07 1009.13 1009.15 1009.14 1009.11 1009.05 1008.99 1008.92 1008.88 1008.87 1008.91 1009.02 1009.20 1009.45 1009.77 1010.15 1010.56 1010.97 1011.35 1011.69 1011.94 1012.09 1012.13 1012.05 1011.87 1011.60 1011.26 1010.88 1010.47 1010.07
1007.17 1007.31 1007.48 1007.67 1007.88 1008.08 1008.27 1008.44 1008.59 1008.71 1008.80 1008.88 1008.92 1008.94 1008.95 1008.93 1008.88 1008.83 1008.76 1008.68 1008.62 1008.57 1008.57 1008.61 1008.72 1008.89 1009.14 1009.46 1009.83 1010.22 1010.63 1011.00 1011.32 1011.57 1011.70 1011.73 1011.64 1011.44 1011.15 1010.79 1010.38 1009.96 1009.55
1007.56 1007.73 1007.91 1008.11 1008.30 1008.48 1008.64 1008.76 1008.85 1008.91 1008.95 1008.96 1008.95 1008.92 1008.88 1008.83 1008.76 1008.69 1008.61 1008.52 1008.45 1008.39 1008.37 1008.40 1008.49 1008.64 1008.87 1009.16 1009.50 1009.88 1010.26 1010.62 1010.93 1011.17 1011.31 1011.33 1011.24 1011.04 1010.76 1010.40 1010.00 1009.59 1009.19
1007.96 1008.14 1008.34 1008.53 1008.71 1008.86 1008.99 1009.07 1009.13 1009.15 1009.14 1009.12 1009.07 1009.02 1008.97 1008.90 1008.82 1008.74 1008.65 1008.55 1008.46 1008.39 1008.34 1008.33 1008.38 1008.50 1008.68 1008.93 1009.24 1009.58 1009.94 1010.28 1010.59 1010.82 1010.97 1011.01 1010.94 1010.76 1010.50 1010.17 1009.79 1009.41 1009.04
Thickness
5776 5772 5769 5766 5763 5761 5758 5755 5754 5752 5750 5748 5746 5744 5742 5740 5739 5736 5735 5734 5732 5730 5729 5728 5725 5725 5724 5723 5723 5721 5719 5716 5709 5710 5713 5714 5714 5713 5712 5711 5710 5709 5707
5773 5769 5765 5763 5760 5757 5755 5752 5750 5748 5746 5744 5742 5740 5738 5737 5735 5732 5729 5729 5727 5725 5724 5723 5721 5720 5718 5717 5716 5714 5713 5712 5708 5703 5704 5705 5706 5706 5706 5705 5705 5705 5704
5770 5765 5761 5758 5755 5753 5751 5749 5746 5743 5741 5740 5738 5735 5734 5732 5730 5728 5726 5724 5723 5721 5720 5718 5716 5714 5712 5711 5710 5708 5707 5706 5705 5701 5699 5699 5699 5700 5699 5699 5699 5699 5700
5765 5760 5756 5753 5751 5748 5746 5744 5742 5739 5737 5735 5734 5732 5730 5728 5726 5723 5722 5720 5718 5717 5716 5714 5712 5710 5707 5706 5704 5703 5701 5699 5698 5696 5694 5693 5693 5694 5693 5692 5691 5692 5693
5760 5756 5752 5750 5747 5744 5742 5740 5737 5735 5733 5731 5729 5727 5726 5724 5721 5718 5716 5715 5713 5711 5711 5710 5708 5707 5704 5702 5701 5698 5696 5693 5691 5690 5688 5687 5687 5686 5686 5687 5686 5687 5688
5755 5751 5748 5745 5742 5739 5737 5735 5732 5730 5728 5725 5723 5721 5720 5719 5716 5713 5711 5709 5707 5705 5704 5704 5703 5702 5700 5697 5696 5694 5692 5689 5686 5684 5683 5682 5682 5682 5682 5683 5681 5680 5679
5750 5746 5743 5740 5736 5734 5733 5730 5727 5724 5722 5720 5718 5716 5714 5712 5710 5707 5705 5702 5701 5700 5699 5698 5697 5697 5695 5692 5691 5689 5688 5686 5684 5681 5679 5678 5678 5678 5677 5677 5676 5676 5677
5744 5741 5738 5735 5732 5729 5727 5724 5722 5720 5717 5714 5712 5711 5709 5707 5704 5701 5699 5697 5696 5696 5695 5693 5691 5690 5689 5687 5685 5684 5683 5682 5681 5679 5677 5677 5677 5677 5675 5675 5674 5674 5676
5739 5736 5734 5731 5727 5724 5721 5718 5717 5714 5711 5709 5708 5706 5704 5701 5698 5696 5693 5691 5691 5690 5690 5689 5687 5684 5683 5681 5679 5677 5676 5676 5677 5676 5675 5674 5674 5673 5672 5670 5668 5667 5667
5734 5732 5730 5726 5723 5719 5716 5714 5712 5709 5706 5704 5703 5702 5700 5697 5694 5691 5687 5686 5684 5683 5684 5682 5681 5679 5677 5674 5673 5672 5670 5670 5670 5670 5670 5670 5670 5670 5668 5667 5666 5663 5663
5731 5728 5724 5721 5718 5715 5712 5709 5707 5704 5701 5699 5697 5696 5695 5693 5690 5686 5682 5680 5678 5677 5676 5676 5675 5672 5671 5669 5667 5666 5665 5664 5664 5664 5665 5665 5666 5667 5667 5666 5665 5663 5661
5725 5721 5718 5715 5713 5712 5707 5704 5702 5698 5695 5693 5691 5690 5690 5689 5685 5681 5677 5674 5672 5671 5670 5669 5668 5665 5664 5663 5662 5662 5660 5659 5659 5659 5660 5661 5661 5662 5663 5664 5664 5663 5662
5717 5714 5712 5710 5707 5705 5702 5699 5696 5693 5691 5689 5687 5685 5684 5683 5679 5675 5672 5669 5666 5664 5664 5663 5661 5659 5658 5658 5657 5657 5655 5654 5653 5653 5654 5656 5658 5659 5660 5659 5659 5659 5659
5710 5707 5705 5703 5701 5700 5697 5695 5692 5689 5686 5684 5682 5680 5678 5676 5673 5670 5666 5664 5660 5658 5656 5655 5654 5654 5653 5653 5653 5652 5651 5650 5649 5649 5650 5652 5653 5653 5654 5654 5652 5652 5651
5704 5702 5700 5698 5696 5693 5690 5688 5686 5684 5682 5679 5677 5675 5672 5669 5666 5662 5659 5657 5654 5650 5647 5647 5649 5648 5647 5648 5648 5648 5647 5646 5644 5644 5644 5645 5646 5646 5647 5649 5647 5646 5644
5697 5695 5695 5693 5690 5688 5685 5682 5679 5678 5676 5673 5671 5669 5667 5663 5660 5657 5653 5650 5646 5643 5641 5642 5643 5642 5642 5642 5641 5641 5641 5641 5641 5640 5639 5639 5640 5640 5641 5642 5641 5640 5639
5691 5689 5689 5688 5686 5683 5681 5677 5673 5671 5669 5667 5664 5662 5659 5655 5653 5650 5647 5644 5641 5638 5637 5638 5637 5637 5636 5637 5637 5637 5636 5636 5636 5635 5634 5634 5635 5635 5635 5636 5636 5635 5635
5685 5684 5683 5682 5681 5679 5677 5674 5671 5668 5664 5661 5658 5655 5652 5649 5645 5642 5639 5636 5636 5635 5635 5634 5633 5633 5633 5632 5633 5632 5633 5632 5631 5630 5630 5630 5630 5630 5630 5631 5631 5630 5630
5679 5679 5677 5676 5674 5673 5671 5668 5666 5664 5661 5658 5654 5650 5645 5642 5638 5635 5632 5632 5633 5632 5631 5631 5630 5630 5629 5628 5628 5628 5628 5627 5627 5626 5625 5625 5625 5625 5626 5626 5626 5626 5625
5672 5671 5670 5669 5667 5665 5664 5662 5660 5658 5656 5652 5649 5647 5642 5638 5635 5632 5630 5629 5629 5628 5627 5626 5625 5625 5625 5624 5624 5623 5623 5622 5622 5621 5621 5621 5621 5621 5621 5621 5621 5620 5620
5667 5666 5663 5662 5661 5660 5658 5657 5656 5654 5651 5647 5646 5642 5637 5636 5634 5632 5629 5627 5626 5625 5624 5623 5621 5620 5620 5620 5619 5618 5618 5617 5617 5616 5616 5616 5616 5616 5616 5616 5616 5616 5615
5661 5660 5659 5657 5655 5653 5652 5652 5651 5649 5647 5643 5639 5636 5631 5631 5631 5629 5627 5625 5623 5622 5621 5620 5618 5617 5616 5615 5614 5613 5612 5612 5611 5610 5610 5611 5610 5611 5610 5610 5610 5610 5610
5655 5654 5653 5651 5650 5646 5646 5646 5645 5643 5641 5638 5635 5633 5629 5627 5627 5626 5624 5622 5620 5618 5617 5616 5614 5613 5612 5611 5610 5608 5606 5605 5604 5604 5603 5603 5604 5604 5605 5604 5604 5604 5604
5650 5648 5647 5645 5645 5643 5642 5641 5640 5638 5636 5633 5631 5629 5626 5623 5622 5620 5619 5618 5616 5614 5613 5611 5610 5608 5607 5605 5604 5603 5601 5600 5599 5598 5597 5597 5597 5598 5599 5598 5598 5598 5598
5644 5643 5641 5640 5639 5638 5637 5635 5634 5633 5631 5628 5626 5624 5621 5620 5618 5616 5615 5613 5612 5610 5608 5606 5605 5604 5602 5600 5598 5597 5595 5594 5592 5592 5592 5592 5592 5592 5592 5592 5592 5593 5593
5640 5638 5636 5635 5633 5633 5632 5630 5628 5627 5625 5624 5621 5619 5617 5615 5614 5612 5610 5608 5606 5604 5602 5600 5598 5598 5596 5595 5593 5591 5590 5589 5587 5586 5586 5587 5587 5587 5587 5587 5587 5587 5587